Location: Bernay
(48.6766°N, 2.9386°E)
Time: 18:09:30
(UTC+00:00)

Thor Agena Rocket - Pass Details

Date: 12 January 2026
Orbit: 755 x 801 km, 99.1° (Epoch: 16 February)

Event Time Altitude Azimuth Distance (km) Brightness Sun altitude
Rises 16:58:38 0° 161° (SSE) 3,209 6.8 -7.0°
Reaches altitude 10° 17:00:55 10° 160° (SSE) 2,284 6.0 -7.4°
Maximum altitude 17:05:56 85° 73° (ENE) 767 3.5 -8.1°
Drops below altitude 10° 17:10:59 10° 346° (NNW) 2,294 5.9 -8.9°
Sets 17:13:18 0° 346° (NNW) 3,225 6.7 -9.2°
